Weather History for Crestview, FL

Change the Weather History Date:

Wednesday, July 17, 2013

  Actual Average Record
Temperature  
Mean Temperature 82 °F -  
Max Temperature 93 °F 92 °F 101 °F (1951)
Min Temperature 72 °F 71 °F 61 °F (2014)
Cooling Degree Days 18    
Growing Degree Days 32 (Base 50)    
Moisture  
Dew Point 71 °F    
Average Humidity 72    
Maximum Humidity 93    
Minimum Humidity 45    
Precipitation  
Precipitation 0.00 in - - ()
Sea Level Pressure  
Sea Level Pressure 30.18 in    
Wind  
Wind Speed 3 mph (ENE)    
Max Wind Speed 13 mph    
Max Gust Speed 16 mph    
Visibility 10 miles    
Events      
Averages and records for this station are not official NWS values.
T = Trace of Precipitation, MM = Missing Value Source: NWS Daily Summary

Daily Weather History Graph

Daily Weather History Graph

Search for Another Location

Airport:

Trip Planner

Search our weather history database for the weather conditions in past years. The results will help you decide how hot, cold, wet, or windy it might be!

Date:

Astronomy

Jul. 17, 2013 Rise Set
Actual Time 5:54 AM CDT 7:49 PM CDT
Civil Twilight 5:27 AM CDT 8:16 PM CDT
Nautical Twilight 4:54 AM CDT 8:49 PM CDT
Astronomical Twilight 4:20 AM CDT 9:23 PM CDT
Moon 2:43 PM CDT (7/17) 12:53 AM CDT (7/17)
Length of Visible Light 14h 48m
Length of Day
13h 54m
Waxing Gibbous, 67% of the Moon is Illuminated
Jul 17
Waxing Gibbous
Jul 22
Full
Jul 29
Last Quarter
Aug 6
New
Aug 14
First Quarter

Hourly Weather History & Observations

Time (CDT) Temp. Heat Index Dew Point Humidity Pressure Visibility Wind Dir Wind Speed Gust Speed Precip Events Conditions
12:53 AM 73.9 °F - 71.1 °F 91% 30.20 in 10.0 mi Calm Calm - N/A   Partly Cloudy
1:53 AM 73.9 °F - 71.1 °F 91% 30.20 in 10.0 mi Calm Calm - N/A   Clear
2:53 AM 73.0 °F - 71.1 °F 93% 30.20 in 7.0 mi Calm Calm - N/A   Clear
3:53 AM 73.9 °F - 71.1 °F 91% 30.19 in 10.0 mi Calm Calm - N/A   Clear
4:53 AM 72.0 °F - 69.1 °F 91% 30.20 in 8.0 mi Calm Calm - N/A   Clear
5:53 AM 72.0 °F - 70.0 °F 93% 30.22 in 6.0 mi Calm Calm - N/A   Clear
6:53 AM 75.0 °F - 72.0 °F 90% 30.22 in 8.0 mi Calm Calm - N/A   Clear
7:53 AM 79.0 °F - 73.9 °F 84% 30.24 in 10.0 mi ENE 5.8 mph - N/A   Clear
8:53 AM 82.0 °F 87.9 °F 73.9 °F 76% 30.23 in 10.0 mi ENE 4.6 mph - N/A   Clear
9:37 AM 84.2 °F 90.9 °F 73.4 °F 70% 30.25 in 10.0 mi ENE 5.8 mph - N/A   Partly Cloudy
9:53 AM 86.0 °F 93.8 °F 73.9 °F 67% 30.24 in 10.0 mi East 8.1 mph - N/A   Partly Cloudy
10:53 AM 88.0 °F 94.7 °F 72.0 °F 59% 30.23 in 10.0 mi ENE 9.2 mph - N/A   Scattered Clouds
11:53 AM 90.0 °F 95.4 °F 70.0 °F 52% 30.22 in 10.0 mi Variable 6.9 mph - N/A   Partly Cloudy
12:53 PM 91.9 °F 98.4 °F 71.1 °F 50% 30.20 in 10.0 mi ENE 12.7 mph 16.1 mph N/A   Partly Cloudy
1:53 PM 91.9 °F 98.4 °F 71.1 °F 50% 30.19 in 10.0 mi NNE 9.2 mph - N/A   Mostly Cloudy
2:53 PM 91.0 °F 96.6 °F 70.0 °F 50% 30.17 in 10.0 mi ENE 6.9 mph - N/A   Mostly Cloudy
3:53 PM 93.0 °F 97.9 °F 69.1 °F 45% 30.14 in 10.0 mi East 6.9 mph - N/A   Clear
4:53 PM 93.0 °F 97.9 °F 69.1 °F 45% 30.12 in 10.0 mi ENE 5.8 mph - N/A   Partly Cloudy
5:53 PM 91.9 °F 96.9 °F 69.1 °F 47% 30.11 in 10.0 mi NNE 6.9 mph - N/A   Clear
6:53 PM 90.0 °F 95.4 °F 70.0 °F 52% 30.11 in 10.0 mi NNE 3.5 mph - N/A   Clear
7:53 PM 82.0 °F 87.4 °F 73.0 °F 74% 30.13 in 10.0 mi Calm Calm - N/A   Clear
8:53 PM 79.0 °F - 73.0 °F 82% 30.14 in 10.0 mi Calm Calm - N/A   Clear
9:53 PM 77.0 °F - 73.0 °F 88% 30.14 in 10.0 mi Calm Calm - N/A   Clear
10:53 PM 77.0 °F - 73.0 °F 88% 30.14 in 10.0 mi Calm Calm - N/A   Clear
11:53 PM 77.0 °F - 72.0 °F 84% 30.16 in 10.0 mi NE 3.5 mph - N/A   Mostly Cloudy